Three Rivers, MI

2:49 AM EDT on May 29, 2017 (GMT -0400)
Three Rivers Municipal-Haines

Weather History for KHAI - March, 2013

Change the Weather History Date:

Friday, March 15, 2013

  Actual Average Record
Temperature  
Mean Temperature 38 °F -  
Max Temperature 45 °F 46 °F 79 °F (2012)
Min Temperature 30 °F 27 °F 1 °F (1993)
Degree Days  
Heating Degree Days 28    
Moisture  
Dew Point 31 °F    
Average Humidity 82    
Maximum Humidity 93    
Minimum Humidity 61    
Precipitation  
Precipitation 0.00 in - - ()
Sea Level Pressure  
Sea Level Pressure 29.92 in    
Wind  
Wind Speed 4 mph (West)    
Max Wind Speed 9 mph    
Max Gust Speed -    
Visibility 6 miles    
Events Rain    
Averages and records for this station are not official NWS values.
T = Trace of Precipitation, MM = Missing Value Source: NWS Daily Summary

Daily Weather History Graph

Daily Weather History Graph

Search for Another Location

Airport or City:

Trip Planner

Search our weather history database for the weather conditions in past years. The results will help you decide how hot, cold, wet, or windy it might be!

Date:

Astronomy

Mar. 15, 2013 Rise Set
Actual Time 7:53 AM EDT 7:49 PM EDT
Civil Twilight 7:26 AM EDT 8:17 PM EDT
Nautical Twilight 6:53 AM EDT 8:49 PM EDT
Astronomical Twilight 6:20 AM EDT 9:22 PM EDT
Moon 9:39 AM EDT (3/15) No Moon Set
Length of Visible Light 12h 51m
Length of Day
11h 55m
Waxing Crescent, 15% of the Moon is Illuminated
Mar 15
Waxing Crescent
Mar 19
First Quarter
Mar 27
Full
Apr 3
Last Quarter
Apr 10
New

Hourly Weather History & Observations

Time (EDT) Temp. Windchill Dew Point Humidity Pressure Visibility Wind Dir Wind Speed Gust Speed Precip Events Conditions
12:15 AM 32.4 °F - 24.3 °F 72% 30.10 in 10.0 mi Calm Calm - N/A   Overcast
12:34 AM 32.4 °F - 24.6 °F 73% 30.10 in 10.0 mi Calm Calm - N/A   Overcast
12:54 AM 32.2 °F - 24.8 °F 74% 30.09 in 10.0 mi Calm Calm - N/A   Mostly Cloudy
1:15 AM 32.2 °F - 25.5 °F 76% 30.09 in 10.0 mi Calm Calm - N/A   Mostly Cloudy
1:34 AM 32.0 °F 28.7 °F 26.1 °F 79% 30.08 in 10.0 mi SW 3.5 mph - N/A   Scattered Clouds
1:55 AM 32.0 °F 25.6 °F 27.3 °F 83% 30.07 in 10.0 mi WSW 6.9 mph - N/A   Scattered Clouds
2:14 AM 32.0 °F 26.4 °F 27.9 °F 85% 30.07 in 10.0 mi WSW 5.8 mph - N/A   Mostly Cloudy
2:34 AM 32.0 °F 27.5 °F 28.4 °F 87% 30.06 in 10.0 mi WSW 4.6 mph - N/A   Overcast
2:55 AM 32.0 °F 24.8 °F 29.1 °F 89% 30.05 in 10.0 mi WSW 8.1 mph - N/A   Overcast
3:14 AM 32.2 °F 25.0 °F 29.3 °F 89% 30.04 in 7.0 mi SW 8.1 mph - N/A   Overcast
3:35 AM 32.0 °F 24.2 °F 29.1 °F 89% 30.03 in 7.0 mi WSW 9.2 mph - N/A   Overcast
3:55 AM 32.0 °F 24.8 °F 28.8 °F 88% 30.03 in 7.0 mi WSW 8.1 mph - N/A   Scattered Clouds
4:14 AM 31.8 °F 27.3 °F 28.6 °F 88% 30.02 in 7.0 mi SW 4.6 mph - N/A   Clear
4:35 AM 31.8 °F 26.2 °F 28.8 °F 88% 30.02 in 7.0 mi WSW 5.8 mph - N/A   Clear
4:55 AM 31.6 °F 26.0 °F 28.8 °F 89% 30.00 in 7.0 mi SW 5.8 mph - N/A   Clear
5:14 AM 31.5 °F 28.1 °F 28.4 °F 88% 30.00 in 7.0 mi SW 3.5 mph - N/A   Clear
5:35 AM 31.1 °F 26.4 °F 28.4 °F 90% 29.99 in 7.0 mi SW 4.6 mph - N/A   Clear
5:54 AM 31.1 °F 25.4 °F 28.4 °F 90% 29.97 in 7.0 mi SW 5.8 mph - N/A   Clear
6:14 AM 30.7 °F 24.1 °F 28.2 °F 90% 29.97 in 5.0 mi SW 6.9 mph - N/A   Clear
6:35 AM 30.6 °F 27.1 °F 28.0 °F 90% 29.96 in 5.0 mi SW 3.5 mph - N/A   Clear
6:54 AM 30.7 °F - 28.2 °F 90% 29.96 in 5.0 mi Calm Calm - N/A   Clear
7:15 AM 30.7 °F 27.3 °F 28.2 °F 90% 29.95 in 7.0 mi WSW 3.5 mph - N/A   Clear
7:34 AM 30.7 °F 26.0 °F 28.2 °F 90% 29.95 in 7.0 mi WSW 4.6 mph - N/A   Clear
7:54 AM 30.7 °F 27.3 °F 28.0 °F 90% 29.96 in 5.0 mi WSW 3.5 mph - N/A   Clear
8:15 AM 30.9 °F 27.5 °F 28.2 °F 90% 29.95 in 4.0 mi SW 3.5 mph - N/A   Clear
8:34 AM 31.1 °F 26.4 °F 28.4 °F 90% 29.95 in 5.0 mi WSW 4.6 mph - N/A   Clear
8:55 AM 31.6 °F 27.0 °F 28.8 °F 89% 29.94 in 5.0 mi WSW 4.6 mph - N/A   Clear
9:15 AM 32.0 °F 27.5 °F 29.1 °F 89% 29.94 in 5.0 mi SW 4.6 mph - N/A   Clear
9:34 AM 32.2 °F 26.7 °F 29.3 °F 89% 29.93 in 5.0 mi SW 5.8 mph - N/A   Clear
9:55 AM 32.7 °F 28.3 °F 29.7 °F 88% 29.93 in 5.0 mi SW 4.6 mph - N/A   Clear
10:15 AM 34.2 °F 30.0 °F 30.6 °F 87% 29.93 in 7.0 mi WSW 4.6 mph - N/A   Clear
10:34 AM 35.1 °F 30.1 °F 30.6 °F 84% 29.92 in 7.0 mi West 5.8 mph - N/A   Scattered Clouds
10:55 AM 36.0 °F 29.6 °F 30.4 °F 80% 29.93 in 7.0 mi West 8.1 mph - N/A   Clear
11:15 AM 37.0 °F 32.4 °F 30.9 °F 79% 29.93 in 7.0 mi West 5.8 mph - N/A   Clear
11:34 AM 37.9 °F 33.5 °F 31.5 °F 77% 29.93 in 7.0 mi West 5.8 mph - N/A   Scattered Clouds
11:55 AM 38.5 °F 33.4 °F 31.6 °F 76% 29.92 in 7.0 mi West 6.9 mph - N/A   Scattered Clouds
12:14 PM 39.9 °F 36.7 °F 31.6 °F 72% 29.91 in 7.0 mi West 4.6 mph - N/A   Clear
12:35 PM 41.0 °F 38.0 °F 31.6 °F 69% 29.90 in 7.0 mi West 4.6 mph - N/A   Clear
12:54 PM 41.0 °F - 31.6 °F 69% 29.90 in 7.0 mi Calm Calm - N/A   Clear
1:14 PM 42.1 °F 38.4 °F 32.0 °F 67% 29.90 in 10.0 mi West 5.8 mph - N/A   Clear
1:35 PM 43.0 °F 40.3 °F 32.0 °F 65% 29.89 in 10.0 mi NW 4.6 mph - N/A   Clear
1:54 PM 43.9 °F 40.5 °F 32.0 °F 63% 29.89 in 10.0 mi WSW 5.8 mph - N/A   Clear
2:14 PM 43.9 °F 40.5 °F 32.0 °F 63% 29.89 in 10.0 mi WSW 5.8 mph - N/A   Clear
2:35 PM 45.0 °F 41.2 °F 32.5 °F 62% 29.88 in 7.0 mi West 6.9 mph - N/A   Scattered Clouds
2:54 PM 45.5 °F 41.8 °F 32.7 °F 61% 29.88 in 10.0 mi WNW 6.9 mph - N/A   Mostly Cloudy
3:15 PM 45.3 °F 42.3 °F 33.3 °F 63% 29.87 in 10.0 mi WSW 5.8 mph - N/A   Overcast
3:34 PM 44.8 °F 42.4 °F 33.1 °F 64% 29.86 in 10.0 mi WNW 4.6 mph - N/A   Overcast
3:55 PM 45.0 °F 40.6 °F 32.7 °F 62% 29.86 in 10.0 mi West 8.1 mph - N/A   Overcast
4:15 PM 45.0 °F 41.2 °F 33.3 °F 64% 29.86 in 10.0 mi West 6.9 mph - N/A   Overcast
4:34 PM 44.8 °F 39.9 °F 33.3 °F 64% 29.85 in 10.0 mi West 9.2 mph - N/A   Overcast
4:55 PM 44.2 °F 41.0 °F 34.0 °F 67% 29.85 in 7.0 mi West 5.8 mph - N/A Rain Light Rain
5:15 PM 43.9 °F 40.5 °F 35.4 °F 72% 29.85 in 5.0 mi West 5.8 mph - N/A Rain Light Rain
5:34 PM 43.7 °F 41.1 °F 35.6 °F 73% 29.85 in 5.0 mi NW 4.6 mph - N/A   Drizzle
5:55 PM 42.4 °F 37.5 °F 35.2 °F 76% 29.85 in 7.0 mi NW 8.1 mph - N/A   Light Drizzle
6:15 PM 41.9 °F 38.2 °F 34.9 °F 76% 29.85 in 7.0 mi NW 5.8 mph - N/A   Light Drizzle
6:34 PM 41.7 °F 38.0 °F 34.9 °F 77% 29.85 in 7.0 mi NW 5.8 mph - N/A Rain Rain
6:55 PM 40.3 °F 36.3 °F 35.6 °F 83% 29.85 in 4.0 mi North 5.8 mph - N/A Rain Light Rain
7:14 PM 39.2 °F 35.0 °F 35.1 °F 85% 29.84 in 3.0 mi North 5.8 mph - N/A Rain Light Rain
7:34 PM 38.5 °F 35.0 °F 35.1 °F 87% 29.84 in 3.0 mi North 4.6 mph - N/A Rain Rain
7:55 PM 38.3 °F - 35.1 °F 88% 29.84 in 4.0 mi Calm Calm - N/A Rain Rain
8:14 PM 37.6 °F - 34.7 °F 89% 29.84 in 3.0 mi Calm Calm - N/A Rain Rain
8:35 PM 37.4 °F 34.9 °F 34.9 °F 91% 29.84 in 3.0 mi NE 3.5 mph - N/A Rain Rain
8:55 PM 37.2 °F - 34.7 °F 91% 29.84 in 3.0 mi Calm Calm - N/A Rain Light Rain
9:14 PM 37.0 °F - 34.7 °F 91% 29.84 in 2.5 mi Calm Calm - N/A Rain Light Rain
9:35 PM 37.0 °F 34.5 °F 34.9 °F 92% 29.82 in 2.5 mi East 3.5 mph - N/A   Light Drizzle
9:55 PM 37.0 °F 33.3 °F 34.9 °F 92% 29.82 in 2.5 mi ENE 4.6 mph - N/A   Overcast
10:14 PM 36.9 °F 31.4 °F 34.9 °F 93% 29.82 in 2.5 mi East 6.9 mph - N/A   Overcast
10:35 PM 36.7 °F 32.0 °F 34.7 °F 93% 29.82 in 3.0 mi ENE 5.8 mph - N/A   Overcast
10:54 PM 36.7 °F 29.9 °F 34.7 °F 93% 29.80 in 2.5 mi East 9.2 mph - N/A   Overcast
11:15 PM 36.5 °F 33.9 °F 34.7 °F 93% 29.82 in 3.0 mi ENE 3.5 mph - N/A   Overcast
11:35 PM 36.7 °F 34.1 °F 34.7 °F 93% 29.82 in 3.0 mi ENE 3.5 mph - N/A   Drizzle
11:54 PM 36.5 °F - 34.7 °F 93% 29.81 in 2.5 mi Calm Calm - N/A   Drizzle